| time (UTC) | temp F | wind direction | speed MPH | gust MPH | rain 1hr in | rain 24hr in | rain mn in | humidity % | barometer mb |
| 20260831033104 | 60 | 126 | 0.0 | 0.0 | 0.00 | 0.00 | 0.00 | 87 | 1014.5 |
| 20260831031514 | 60 | 120 | 0.0 | 2.0 | 0.00 | 0.00 | 0.00 | 86 | 1014.4 |
| 20260831030035 | 60 | 119 | 0.0 | 0.0 | 0.00 | 0.00 | 0.00 | 85 | 1015.1 |
| 20260831024539 | 60 | 119 | 0.0 | 0.0 | 0.00 | 0.00 | 0.00 | 85 | 1015.1 |
| 20260831023033 | 60 | 119 | 0.0 | 1.0 | 0.00 | 0.00 | 0.00 | 85 | 1014.9 |
| 20260831021558 | 60 | 107 | 0.0 | 1.0 | 0.00 | 0.00 | 0.00 | 84 | 1014.9 |
| 20260831020047 | 60 | 109 | 0.0 | 0.0 | 0.00 | 0.00 | 0.00 | 83 | 1014.7 |
| 20260831014502 | 60 | 108 | 0.0 | 0.0 | 0.00 | 0.00 | 0.00 | 82 | 1014.9 |
| 20260831013020 | 60 | 108 | 0.0 | 0.0 | 0.00 | 0.00 | 0.00 | 83 | 1015.0 |
| 20260831011539 | 60 | 108 | 0.0 | 1.0 | 0.00 | 0.00 | 0.00 | 82 | 1014.9 |
| 20260831010104 | 60 | 108 | 0.0 | 0.0 | 0.00 | 0.00 | 0.00 | 82 | 1015.0 |
| 20260831004502 | 60 | 108 | 0.0 | 1.0 | 0.00 | 0.00 | 0.00 | 82 | 1015.1 |
| 20260831003023 | 60 | 110 | 0.0 | 0.0 | 0.00 | 0.00 | 0.00 | 82 | 1015.3 |
| 20260831001543 | 60 | 110 | 0.0 | 0.0 | 0.00 | 0.00 | 0.00 | 82 | 1015.3 |
| 20260831000104 | 60 | 110 | 0.0 | 0.0 | 0.00 | 0.00 | 0.00 | 81 | 1015.5 |
| 20260830234552 | 61 | 120 | 0.0 | 1.0 | 0.00 | 0.00 | 0.00 | 80 | 1015.6 |
| 20260830233033 | 61 | 106 | 0.0 | 0.0 | 0.00 | 0.00 | 0.00 | 80 | 1015.6 |
| 20260830231512 | 62 | 106 | 0.0 | 0.0 | 0.00 | 0.00 | 0.00 | 78 | 1015.6 |
| 20260830230038 | 62 | 106 | 0.0 | 0.0 | 0.00 | 0.00 | 0.00 | 78 | 1015.7 |
| 20260830224524 | 62 | 106 | 0.0 | 0.0 | 0.00 | 0.00 | 0.00 | 77 | 1015.7 |
| 20260830223048 | 63 | 106 | 0.0 | 0.0 | 0.00 | 0.00 | 0.00 | 76 | 1015.7 |
| 20260830221549 | 63 | 106 | 0.0 | 1.0 | 0.00 | 0.00 | 0.00 | 75 | 1015.7 |
| 20260830220016 | 63 | 98 | 1.0 | 5.0 | 0.00 | 0.00 | 0.00 | 75 | 1015.7 |
| 20260830214518 | 63 | 271 | 0.0 | 1.0 | 0.00 | 0.00 | 0.00 | 76 | 1015.5 |
| 20260830213030 | 61 | 271 | 0.0 | 0.0 | 0.00 | 0.00 | 0.00 | 79 | 1016.0 |
| 20260830211529 | 62 | 271 | 0.0 | 0.0 | 0.00 | 0.00 | 0.00 | 78 | 1016.0 |
| 20260830210040 | 62 | 271 | 0.0 | 0.0 | 0.00 | 0.00 | 0.00 | 78 | 1015.7 |
| 20260830204559 | 62 | 271 | 0.0 | 0.0 | 0.00 | 0.00 | 0.00 | 77 | 1015.6 |
| 20260830203015 | 64 | 271 | 0.0 | 0.0 | 0.00 | 0.00 | 0.00 | 76 | 1015.6 |
| 20260830201531 | 64 | 271 | 0.0 | 0.0 | 0.00 | 0.00 | 0.00 | 74 | 1015.6 |
| 20260830200037 | 65 | 271 | 0.0 | 0.0 | 0.00 | 0.00 | 0.00 | 73 | 1015.5 |
| 20260830194516 | 66 | 271 | 0.0 | 1.0 | 0.00 | 0.00 | 0.00 | 71 | 1015.4 |
| 20260830193029 | 67 | 266 | 0.0 | 1.0 | 0.00 | 0.00 | 0.00 | 69 | 1015.5 |
| 20260830191617 | 67 | 230 | 0.0 | 1.0 | 0.00 | 0.00 | 0.00 | 70 | 1015.5 |
| 20260830190109 | 67 | 230 | 0.0 | 1.0 | 0.00 | 0.00 | 0.00 | 68 | 1015.5 |
| 20260830184513 | 68 | 230 | 0.0 | 0.0 | 0.00 | 0.00 | 0.00 | 66 | 1015.6 |
| 20260830183021 | 68 | 230 | 0.0 | 0.0 | 0.00 | 0.00 | 0.00 | 66 | 1015.5 |
| 20260830181542 | 69 | 230 | 0.0 | 0.0 | 0.00 | 0.00 | 0.00 | 65 | 1015.2 |
| 20260830180050 | 71 | 230 | 0.0 | 0.0 | 0.00 | 0.00 | 0.00 | 65 | 1015.2 |
| 20260830174607 | 73 | 230 | 0.0 | 0.0 | 0.00 | 0.00 | 0.00 | 60 | 1014.8 |
| 20260830173011 | 75 | 230 | 0.0 | 1.0 | 0.00 | 0.00 | 0.00 | 56 | 1014.7 |
| 20260830171525 | 76 | 262 | 0.0 | 1.0 | 0.00 | 0.00 | 0.00 | 53 | 1014.6 |
| 20260830170043 | 78 | 274 | 1.0 | 5.0 | 0.00 | 0.00 | 0.00 | 51 | 1014.7 |
| 20260830164603 | 79 | 266 | 0.0 | 4.0 | 0.00 | 0.00 | 0.00 | 49 | 1014.7 |
| 20260830163013 | 80 | 257 | 1.0 | 6.0 | 0.00 | 0.00 | 0.00 | 48 | 1014.7 |
| 20260830161530 | 81 | 276 | 2.0 | 8.0 | 0.00 | 0.00 | 0.00 | 46 | 1014.5 |
| 20260830160043 | 82 | 294 | 2.0 | 7.0 | 0.00 | 0.00 | 0.00 | 46 | 1014.6 |
| 20260830154605 | 82 | 233 | 2.0 | 7.0 | 0.00 | 0.00 | 0.00 | 46 | 1014.5 |
| 20260830153011 | 83 | 264 | 1.0 | 6.0 | 0.00 | 0.00 | 0.00 | 45 | 1014.5 |
| 20260830151508 | 81 | 253 | 0.0 | 5.0 | 0.00 | 0.00 | 0.00 | 49 | 1014.6 |
| 20260830150045 | 81 | 244 | 2.0 | 8.0 | 0.00 | 0.00 | 0.00 | 48 | 1014.7 |
| 20260830144605 | 82 | 214 | 2.0 | 7.0 | 0.00 | 0.00 | 0.00 | 47 | 1014.7 |
| 20260830143007 | 82 | 290 | 1.0 | 5.0 | 0.00 | 0.00 | 0.00 | 50 | 1014.7 |
| 20260830141523 | 82 | 195 | 3.0 | 12.0 | 0.00 | 0.00 | 0.00 | 48 | 1014.7 |
| 20260830140038 | 82 | 271 | 3.0 | 13.0 | 0.00 | 0.00 | 0.00 | 48 | 1014.8 |
| 20260830134538 | 82 | 260 | 2.0 | 9.0 | 0.00 | 0.00 | 0.00 | 49 | 1014.8 |
| 20260830133104 | 82 | 229 | 3.0 | 8.0 | 0.00 | 0.00 | 0.00 | 49 | 1014.9 |
| 20260830131501 | 82 | 236 | 4.0 | 9.0 | 0.00 | 0.00 | 0.00 | 48 | 1015.0 |
| 20260830130024 | 82 | 227 | 2.0 | 11.0 | 0.00 | 0.00 | 0.00 | 49 | 1015.0 |
| 20260830124523 | 81 | 139 | 3.0 | 9.0 | 0.00 | 0.00 | 0.00 | 50 | 1015.3 |
| 20260830123053 | 81 | 214 | 3.0 | 10.0 | 0.00 | 0.00 | 0.00 | 50 | 1015.4 |
| 20260830121534 | 80 | 220 | 3.0 | 11.0 | 0.00 | 0.00 | 0.00 | 50 | 1015.4 |
| 20260830120108 | 80 | 212 | 5.0 | 8.0 | 0.00 | 0.00 | 0.00 | 51 | 1015.5 |
| 20260830114600 | 81 | 268 | 3.0 | 7.0 | 0.00 | 0.00 | 0.00 | 49 | 1015.6 |
| 20260830113017 | 80 | 235 | 3.0 | 9.0 | 0.00 | 0.00 | 0.00 | 51 | 1015.7 |
| 20260830111539 | 79 | 147 | 3.0 | 10.0 | 0.00 | 0.00 | 0.00 | 53 | 1015.8 |
| 20260830110052 | 79 | 235 | 1.0 | 6.0 | 0.00 | 0.00 | 0.00 | 52 | 1015.8 |
| 20260830104614 | 79 | 264 | 1.0 | 9.0 | 0.00 | 0.00 | 0.00 | 51 | 1016.0 |
| 20260830103025 | 79 | 273 | 3.0 | 6.0 | 0.00 | 0.00 | 0.00 | 49 | 1016.1 |
| 20260830101508 | 79 | 30 | 4.0 | 10.0 | 0.00 | 0.00 | 0.00 | 50 | 1016.2 |
| 20260830100013 | 78 | 212 | 1.0 | 7.0 | 0.00 | 0.00 | 0.00 | 51 | 1016.3 |
| 20260830094538 | 78 | 248 | 2.0 | 9.0 | 0.00 | 0.00 | 0.00 | 52 | 1016.4 |
| 20260830093037 | 77 | 220 | 3.0 | 10.0 | 0.00 | 0.00 | 0.00 | 53 | 1016.5 |
| 20260830091600 | 76 | 248 | 3.0 | 11.0 | 0.00 | 0.00 | 0.00 | 53 | 1016.6 |
| 20260830090007 | 76 | 233 | 4.0 | 9.0 | 0.00 | 0.00 | 0.00 | 54 | 1016.7 |
| 20260830084517 | 75 | 276 | 2.0 | 9.0 | 0.00 | 0.00 | 0.00 | 55 | 1016.9 |
| 20260830083028 | 75 | 240 | 3.0 | 8.0 | 0.00 | 0.00 | 0.00 | 56 | 1017.0 |
| 20260830081551 | 75 | 228 | 1.0 | 7.0 | 0.00 | 0.00 | 0.00 | 56 | 1016.9 |
| 20260830080111 | 74 | 198 | 1.0 | 7.0 | 0.00 | 0.00 | 0.00 | 58 | 1016.8 |
| 20260830074548 | 73 | 233 | 3.0 | 9.0 | 0.00 | 0.00 | 0.00 | 58 | 1017.0 |
| 20260830073002 | 72 | 122 | 2.0 | 10.0 | 0.00 | 0.00 | 0.00 | 60 | 1017.0 |
| 20260830071542 | 72 | 191 | 0.0 | 3.0 | 0.00 | 0.00 | 0.00 | 65 | 1016.9 |
| 20260830070112 | 69 | 101 | 0.0 | 2.0 | 0.00 | 0.00 | 0.00 | 70 | 1016.9 |
| 20260830064514 | 66 | 120 | 0.0 | 1.0 | 0.00 | 0.00 | 0.00 | 74 | 1016.8 |
| 20260830063014 | 65 | 130 | 0.0 | 1.0 | 0.00 | 0.00 | 0.00 | 74 | 1017.1 |
| 20260830061534 | 63 | 134 | 0.0 | 1.0 | 0.00 | 0.00 | 0.00 | 77 | 1017.2 |
| 20260830060054 | 60 | 134 | 0.0 | 1.0 | 0.00 | 0.00 | 0.00 | 81 | 1016.9 |
| 20260830054553 | 59 | 142 | 0.0 | 0.0 | 0.00 | 0.00 | 0.00 | 85 | 1016.9 |
| 20260830053018 | 55 | 143 | 0.0 | 0.0 | 0.00 | 0.00 | 0.00 | 92 | 1016.9 |
| 20260830051537 | 53 | 142 | 0.0 | 0.0 | 0.00 | 0.00 | 0.00 | 95 | 1016.8 |
| 20260830050052 | 51 | 142 | 0.0 | 0.0 | 0.00 | 0.00 | 0.00 | 94 | 1016.8 |
| 20260830044550 | 51 | 142 | 0.0 | 0.0 | 0.00 | 0.00 | 0.00 | 94 | 1016.8 |
| 20260830043102 | 51 | 143 | 0.0 | 0.0 | 0.00 | 0.00 | 0.00 | 93 | 1016.7 |
| 20260830041540 | 51 | 142 | 0.0 | 0.0 | 0.00 | 0.00 | 0.00 | 93 | 1016.6 |
| 20260830040044 | 51 | 143 | 0.0 | 0.0 | 0.00 | 0.00 | 0.00 | 93 | 1016.5 |
| 20260830034541 | 51 | 142 | 0.0 | 0.0 | 0.00 | 0.00 | 0.00 | 94 | 1016.6 |